Helicity
19 88 156 87 142 224 200 190 127 86 113 98 92 48 30 49 19 -25 -68 36 494 218 237 152 133 85 71 126 116 115 91 76 77 105 114 103 109 124 121 135 139 150 155 143
118 99 162 111 59 99 180 89 50 36 25 60 86 84 74 23 41 -36 -48 38 286 259 215 217 248 140 137 129 134 114 84 91 83 87 105 115 114 123 132 143 134 137 139 156
143 127 197 115 66 59 113 132 87 49 68 42 44 36 49 37 40 51 -4 -14 155 347 274 252 200 215 199 139 143 102 108 100 99 102 93 116 133 138 122 130 140 145 144 141
169 144 222 62 77 92 127 112 151 116 91 60 46 70 66 50 27 5 -7 22 27 88 143 164 196 212 176 96 72 94 79 118 151 140 134 128 124 121 134 143 159 160 151 147
152 53 82 39 58 52 34 45 65 80 66 56 40 38 45 35 55 37 36 11 23 49 76 101 196 138 82 220 259 211 193 64 98 145 109 113 165 167 157 139 155 174 179 172
38 42 69 30 49 94 43 29 22 29 46 72 107 25 10 30 38 41 22 42 8 75 137 166 149 109 180 198 198 187 166 134 121 106 89 74 68 158 212 210 161 148 158 200
58 37 26 37 67 74 35 25 55 60 61 92 61 41 31 34 42 53 37 123 73 78 170 204 203 155 153 169 202 172 151 147 150 150 132 119 128 129 156 195 301 394 413 376
59 37 3 55 61 50 59 125 100 99 61 48 58 45 34 27 23 58 117 236 209 113 211 237 246 194 148 125 130 131 143 178 211 237 217 197 215 252 318 376 400 436 469 434
59 49 66 88 111 117 85 96 85 76 70 44 46 32 26 30 24 24 73 149 190 217 179 183 141 163 177 182 129 107 132 178 224 259 229 208 237 280 289 379 471 497 462 469
111 113 118 103 119 118 92 49 41 37 49 35 37 34 31 28 35 35 36 43 67 139 92 129 105 85 73 96 102 93 100 134 158 196 235 277 278 299 312 297 264 254 228 217
131 83 111 143 95 88 46 71 48 12 22 44 38 48 41 37 39 38 28 53 65 68 66 89 78 76 72 73 59 47 44 57 69 93 150 214 278 242 226 261 218 254 286 232
19 87 82 111 120 104 97 65 38 23 17 33 40 38 41 44 48 49 55 66 79 76 59 59 68 83 85 58 44 33 45 59 57 52 72 95 146 284 495 422 417 349 317 263
22 26 81 76 83 72 35 14 24 29 33 31 37 32 42 39 47 61 71 87 98 98 94 86 70 76 83 66 60 71 69 52 76 86 89 91 107 158 248 421 495 442 369 313
92 5 21 66 39 41 24 -1 15 10 25 32 30 37 36 42 57 71 77 72 75 92 114 123 111 106 94 90 85 98 126 169 130 95 106 143 154 157 171 214 267 303 355 270
64 75 40 30 39 36 27 16 18 30 19 22 34 53 53 52 59 75 84 78 78 101 122 121 121 122 105 95 113 131 110 113 114 120 134 154 177 205 223 246 256 247 224 282
35 57 57 55 44 46 38 38 21 25 30 28 41 57 55 58 67 81 106 120 122 135 138 126 129 125 113 114 128 152 163 184 175 154 164 184 193 223 243 247 249 248 254 214
6 37 61 45 32 44 54 45 48 40 60 71 79 84 75 67 86 111 119 125 127 154 156 157 151 144 156 146 156 152 175 200 202 195 205 203 197 199 185 197 217 236 241 227
66 62 71 65 57 49 60 71 74 77 81 87 98 113 133 135 113 121 129 128 142 181 221 194 170 167 184 188 183 176 183 190 203 214 213 228 223 212 213 211 201 195 194 228
67 68 86 89 94 85 82 83 94 94 101 105 124 141 132 147 142 137 142 175 206 222 246 209 199 193 198 189 181 179 186 192 201 208 200 205 213 200 196 193 195 191 180 190
79 85 89 103 118 85 66 79 88 110 107 108 117 153 173 177 162 159 165 198 199 157 167 186 183 191 183 188 182 169 175 179 175 176 175 182 179 180 177 179 163 158 153 144
86 72 113 116 118 123 120 99 88 102 111 131 138 147 155 163 169 150 169 177 185 152 153 172 165 152 146 140 148 147 151 159 164 156 158 155 159 161 162 158 149 130 119 105
56 93 118 116 124 129 124 117 114 120 127 134 135 134 140 151 138 145 155 139 125 134 125 130 126 129 124 143 138 147 151 159 160 151 159 156 151 144 137 123 110 93 84 86
105 99 101 111 112 109 120 126 124 121 128 124 124 126 126 118 111 119 143 126 101 110 104 111 114 134 144 134 134 139 144 147 141 135 131 126 117 108 93 83 73 62 66 71
80 85 89 83 96 124 157 117 104 87 76 73 74 65 67 87 92 80 69 78 92 103 100 94 105 123 123 122 131 135 135 131 128 125 121 117 101 84 70 64 69 68 69 71
67 67 74 104 116 104 87 61 65 65 62 59 54 51 50 47 39 38 54 62 88 85 93 111 119 122 105 107 109 108 103 94 83 79 78 74 73 78 78 76 68 63 63 61
71 82 82 76 71 58 53 51 63 51 54 69 68 57 63 59 59 67 74 82 84 88 87 86 85 85 85 87 85 78 67 62 64 66 64 65 70 73 73 72 69 64 58 53
88 73 80 79 49 43 37 48 57 60 54 54 63 50 56 59 62 64 73 78 78 76 72 69 66 65 57 58 62 64 66 65 63 57 57 56 58 55 59 58 54 50 47 45
Wind_Speed
55 55 59 51 45 43 42 41 44 46 55 59 61 61 60 56 56 53 45 50 40 31 23 28 29 30 27 29 28 25 25 25 23 17 11 7 3 5 8 10 10 13 11 10
50 43 53 52 43 49 61 47 61 68 67 54 59 56 51 51 52 50 48 44 40 29 23 27 31 34 26 25 29 26 28 27 24 21 20 17 14 10 7 9 9 9 10 11
38 37 50 45 42 46 40 46 50 62 54 57 50 49 49 50 50 51 43 43 37 35 29 30 32 32 35 28 22 19 22 25 27 23 19 19 19 17 15 13 12 12 12 14
38 40 39 42 35 26 29 36 40 45 48 48 44 33 39 43 47 46 40 43 41 37 32 29 32 30 34 29 23 23 24 23 21 20 23 21 19 20 21 24 22 21 20 19
41 40 40 30 29 29 35 37 36 38 40 46 46 34 44 50 51 50 47 38 37 38 34 31 29 25 25 20 18 21 27 31 34 46 26 14 17 18 22 25 25 25 29 27
38 35 41 34 29 37 31 43 37 39 40 42 42 41 48 52 53 51 49 46 36 35 33 31 33 32 29 27 25 28 33 37 41 45 46 47 38 30 33 31 33 33 33 37
50 44 46 40 44 39 42 39 31 36 38 39 39 39 45 48 52 50 46 43 39 36 31 32 33 33 31 32 34 37 39 40 43 47 50 53 56 51 40 39 40 43 43 47
44 47 55 44 40 38 28 26 29 33 36 36 37 41 45 46 48 48 42 41 40 36 34 36 37 36 36 38 40 41 42 45 47 50 50 51 47 47 46 40 41 42 40 43
41 40 31 32 25 25 24 25 30 32 36 37 39 42 44 44 44 44 40 37 34 34 34 34 37 37 36 41 42 42 44 47 48 47 47 45 45 44 41 36 35 38 39 41
26 30 21 23 25 24 26 27 31 34 36 37 39 42 42 42 41 40 36 33 35 33 34 37 43 41 38 42 43 43 43 45 46 45 43 42 41 41 37 35 30 29 30 33
21 18 19 23 24 25 25 28 31 34 38 37 38 41 42 41 42 39 39 37 36 34 36 39 42 43 44 44 44 43 44 46 46 46 45 43 43 40 37 36 30 26 27 26
28 33 21 21 23 24 27 31 35 36 38 40 40 41 41 42 41 41 39 39 39 40 40 41 43 44 44 44 43 41 41 43 44 45 45 44 44 45 48 42 37 33 29 25
32 25 16 20 24 29 26 32 36 38 39 40 41 41 41 41 41 41 41 41 41 42 42 41 42 43 44 43 40 39 40 40 41 41 41 40 39 39 39 45 49 46 43 39
29 25 26 27 29 30 31 34 37 38 40 42 42 42 40 41 41 42 42 42 41 41 42 43 42 43 43 41 40 39 38 39 39 39 38 37 36 35 33 33 34 35 43 40
33 30 27 26 31 35 37 38 40 42 43 43 43 42 41 40 41 42 42 41 41 42 42 42 42 43 41 39 38 36 36 36 36 35 34 33 33 33 32 33 33 33 33 37
37 33 32 34 38 42 43 44 44 45 44 43 43 42 40 39 39 40 42 42 41 42 43 43 43 43 41 38 36 35 36 35 33 32 32 32 31 31 31 32 32 33 34 35
35 40 42 43 45 46 46 46 45 44 44 43 42 41 39 39 38 39 40 40 40 41 42 42 42 42 40 38 36 35 34 33 32 31 31 31 31 31 30 31 32 34 36 37
39 41 43 43 46 45 45 44 44 44 43 41 39 37 38 38 38 38 39 40 39 41 43 44 42 40 39 38 36 34 33 32 31 31 31 31 32 32 32 32 32 32 33 34
41 42 43 43 43 42 42 43 42 40 39 37 36 35 35 36 37 38 39 40 42 43 46 45 43 41 40 39 36 34 32 31 30 30 30 30 31 32 32 32 32 31 31 32
42 40 39 39 39 37 36 37 35 36 35 33 32 34 35 37 37 38 39 41 43 43 44 44 43 42 41 39 36 34 32 31 30 30 29 29 30 30 30 30 30 30 30 31
39 37 38 37 37 37 36 35 34 34 34 34 33 34 35 36 37 39 40 41 45 44 43 43 42 41 39 37 35 33 31 31 30 30 30 29 29 29 30 30 30 29 30 30
35 35 35 34 34 35 36 35 34 33 34 34 34 34 34 36 36 37 39 40 42 41 41 41 41 39 37 35 34 32 31 30 30 30 29 29 29 29 29 29 29 29 30 31
33 32 32 32 32 34 35 36 36 36 36 37 36 36 36 36 38 38 40 42 40 39 39 39 39 38 36 34 33 32 31 30 29 29 29 29 29 28 29 29 30 30 30 32
31 31 31 30 31 33 36 36 35 35 35 34 34 35 33 34 35 37 36 37 37 37 37 37 37 36 35 33 33 32 32 31 30 30 30 31 31 30 30 30 31 31 32 33
30 31 30 32 33 34 34 34 35 35 35 36 36 36 35 36 33 34 35 36 36 36 36 37 36 35 35 34 33 33 33 32 31 31 32 32 33 33 33 33 33 33 35 38
33 33 33 34 34 35 35 36 37 37 37 37 36 35 34 34 35 35 35 35 35 36 36 36 36 36 35 35 34 34 33 33 33 33 33 34 34 35 35 36 37 39 41 42
35 34 36 36 36 36 37 38 39 39 37 35 35 35 34 34 34 35 34 34 35 35 36 36 37 36 36 35 35 35 35 35 35 35 35 35 36 37 39 40 42 43 44 45
Wind_Direction
282 284 285 284 284 286 288 297 292 296 297 299 298 295 299 306 311 307 295 313 305 303 273 252 246 245 244 239 241 247 254 264 272 273 272 273 228 182 161 161 153 151 147 157
280 285 280 281 284 282 275 285 281 280 285 298 300 295 306 308 310 300 297 304 309 299 286 269 274 264 257 250 250 253 259 267 277 281 278 278 277 268 224 201 197 189 188 183
280 284 278 280 277 278 284 282 285 274 288 292 296 301 309 314 308 306 291 306 302 303 301 298 291 282 273 265 260 265 270 272 275 281 283 278 277 277 271 257 248 239 227 217
283 288 267 275 293 287 292 295 304 289 286 291 291 312 322 316 314 303 285 302 305 302 294 302 311 308 287 278 268 279 284 287 289 281 283 286 284 279 280 276 269 268 264 258
268 263 273 276 299 303 294 296 314 297 297 303 291 295 313 316 318 314 308 288 295 304 304 313 310 302 311 324 317 310 297 299 300 282 286 272 277 279 281 284 281 274 276 271
265 266 260 277 298 301 314 282 295 301 313 317 314 292 301 316 317 316 325 317 289 295 300 307 312 312 330 332 324 319 309 300 297 296 291 290 290 287 286 278 282 285 282 286
256 268 271 285 288 309 283 292 314 308 311 322 316 315 320 327 332 325 324 322 314 321 298 302 305 313 321 320 320 315 313 312 311 308 301 299 294 291 288 286 290 290 291 297
265 268 268 295 294 295 315 340 329 325 320 327 331 326 324 329 334 332 323 313 325 328 317 322 321 316 322 327 319 319 321 317 316 316 312 309 311 306 300 291 288 291 294 300
273 277 299 315 332 340 350 341 328 329 329 331 332 328 332 330 330 332 329 323 327 338 336 330 332 331 326 327 328 328 329 327 324 325 325 322 317 314 309 308 300 298 300 301
282 291 319 330 342 348 357 347 343 340 332 334 328 333 335 335 332 332 327 328 327 328 336 342 350 349 339 340 340 346 348 348 348 346 345 343 338 333 327 319 315 310 309 313
292 306 314 324 323 335 347 347 345 344 348 341 340 334 334 335 335 330 333 327 330 331 331 336 341 346 346 345 348 354 360 2 3 3 4 5 3 352 349 344 338 332 328 325
286 279 299 309 320 330 338 335 341 339 341 341 337 340 342 338 333 331 327 324 329 333 337 336 342 345 348 350 351 356 3 3 3 13 17 18 22 23 19 22 20 16 15 16
269 295 320 309 308 337 338 338 340 339 337 337 338 341 343 348 347 346 341 336 337 340 341 346 348 351 351 352 352 350 353 354 5 7 9 8 11 20 26 28 35 34 35 37
306 299 303 310 307 321 329 330 336 338 340 340 339 338 340 343 343 345 347 346 346 347 349 349 349 350 350 350 354 358 2 4 4 3 8 12 12 15 19 22 24 22 29 34
304 314 309 312 317 322 326 324 327 330 335 338 338 338 337 338 337 337 338 342 348 349 344 344 345 348 349 356 2 359 0 3 5 7 10 10 12 14 15 17 17 20 17 19
299 307 311 310 307 311 315 321 320 323 330 332 334 337 338 341 344 344 345 344 343 339 336 338 339 339 346 350 352 354 358 2 5 5 6 8 8 8 7 8 9 7 4 358
310 305 310 308 308 307 311 316 323 323 326 328 329 335 338 340 340 336 336 338 340 340 338 335 336 342 351 355 355 355 357 358 1 3 3 4 4 6 5 3 1 359 358 358
317 317 320 321 314 313 317 324 326 324 327 332 333 335 335 335 336 334 334 337 340 341 339 338 341 345 348 351 353 354 355 356 357 357 357 357 356 356 355 355 356 356 358 360
323 320 321 324 322 319 321 324 328 328 328 331 335 336 335 334 334 333 333 334 334 334 333 337 342 346 348 350 352 354 355 356 356 357 358 359 358 357 356 355 355 354 355 355
323 328 336 336 334 333 333 336 340 339 337 339 337 336 335 334 333 333 334 335 333 332 334 338 342 344 347 350 353 355 357 358 358 356 356 356 356 357 358 360 358 356 356 355
327 333 334 335 335 337 339 342 344 343 343 342 339 336 335 334 334 332 331 330 331 335 338 341 343 344 347 349 353 355 357 356 354 350 349 352 355 359 0 1 1 358 356 356
333 336 340 344 344 344 343 346 348 346 343 342 342 340 338 336 337 339 339 335 336 339 341 343 345 348 350 352 354 354 353 351 348 350 352 352 355 356 355 358 2 2 357 353
338 343 346 347 347 347 348 346 345 344 341 338 338 338 337 338 336 332 329 337 341 343 345 345 347 348 351 352 353 352 351 352 352 351 351 352 353 355 355 355 355 356 353 350
341 343 345 351 351 349 344 352 354 354 354 352 350 348 346 344 344 344 345 344 345 345 345 347 348 351 352 352 352 352 350 350 350 350 351 351 351 351 351 351 350 351 349 346
349 348 348 346 345 344 346 349 348 347 346 344 342 342 341 341 341 341 344 344 346 346 346 347 349 349 349 349 349 349 348 350 350 349 349 347 348 346 346 345 345 344 342 339
343 341 341 341 343 340 340 341 338 339 339 338 342 346 347 347 346 345 345 345 346 347 347 347 347 347 347 346 347 347 346 346 347 347 346 347 345 344 342 340 338 336 335 334
340 338 335 333 333 334 333 332 332 332 334 335 335 338 340 341 342 343 343 342 342 342 342 342 342 342 343 342 342 342 343 342 341 341 340 340 339 338 337 336 334 334 333 332